1508446800.7,54720,16.0,73946.5,1.05,-32.35,-34.31,0,*7F
1508446801.91,54721,16.0,73944.8,1.05,-32.51,-34.47,0,*7D
1508446803.12,54722,16.0,73944.8,1.05,-32.57,-34.47,0,*78
1508446804.38,54723,16.0,73944.8,1.05,-32.75,-34.65,0,*79
1508446805.62,54724,16.0,73946.8,1.07,-32.51,-34.47,0,*7A
1508446806.84,54725,16.0,73944.0,1.05,-32.51,-34.35,0,*7C
1508446808.08,54726,16.0,73946.3,1.07,-32.57,-34.47,0,*7E
1508446809.3,54727,15.94,73944.5,1.05,-32.51,-34.35,0,*7E
1508446810.51,54728,16.0,73948.0,1.05,-32.57,-34.47,0,*72
1508446811.77,54729,16.0,73946.8,1.07,-32.57,-34.53,0,*74
1508446813.01,54730,16.0,73948.0,1.05,-32.57,-34.53,0,*7E
1508446814.24,54731,16.0,73950.5,1.05,-32.57,-34.53,0,*7F
1508446815.44,54732,16.0,73944.0,1.05,-32.51,-34.47,0,*7F
1508446816.7,54733,16.0,73946.8,1.03,-32.75,-34.59,0,*71
1508446817.94,54734,16.0,73948.5,1.05,-32.69,-34.65,0,*72
1508446819.16,54735,16.0,73946.5,1.05,-32.91,-34.83,0,*7C
1508446820.42,54736,16.0,73946.0,1.05,-32.75,-34.65,0,*7D
1508446821.66,54737,16.0,73944.0,1.05,-32.69,-34.65,0,*71
1508446822.9,54738,16.0,73946.0,1.07,-32.69,-34.47,0,*7C
1508446824.11,54739,16.0,73946.5,1.05,-32.57,-34.47,0,*72
1508446825.37,54740,16.0,73948.0,1.05,-32.75,-34.53,0,*79
1508446826.61,54741,16.0,73948.3,1.07,-32.57,-34.47,0,*7F
1508446827.84,54742,16.0,73944.3,1.05,-32.57,-34.35,0,*7B
1508446829.04,54743,16.0,73946.3,1.05,-32.51,-34.47,0,*79
1508446830.25,54744,15.94,73942.5,1.05,-32.57,-34.47,0,*78
1508446831.51,54745,16.0,73946.5,1.05,-32.75,-34.65,0,*79
1508446832.76,54746,16.0,73944.0,1.07,-32.35,-34.35,0,*79
1508446834.01,54747,16.0,73946.0,1.05,-32.45,-34.31,0,*79
1508446835.25,54748,16.0,73944.8,1.05,-32.45,-34.31,0,*76
1508446836.49,54749,16.0,73946.0,1.07,-32.51,-34.47,0,*71
1508446837.74,54750,16.0,73946.5,1.07,-32.35,-34.31,0,*7A
1508446838.98,54751,16.0,73946.8,1.07,-32.35,-34.31,0,*7B
1508446840.19,54752,16.0,73944.3,1.05,-32.57,-34.47,0,*7F
1508446841.43,54753,16.0,73946.0,1.07,-32.51,-34.47,0,*7A
1508446842.7,54754,16.0,73944.3,1.07,-32.45,-34.35,0,*7D
1508446843.96,54755,16.0,73946.8,1.07,-32.51,-34.35,0,*79
1508446845.2,54756,15.94,73942.3,1.07,-32.35,-34.31,0,*7C
1508446846.46,54757,16.0,73946.5,1.07,-32.57,-34.35,0,*7D
1508446847.71,54758,16.0,73944.5,1.05,-32.45,-34.31,0,*77
1508446848.93,54759,16.0,73944.0,1.05,-32.51,-34.35,0,*77
1508446850.18,54760,16.0,73946.5,1.07,-32.35,-34.31,0,*79
1508446851.4,54761,15.94,73944.8,1.09,-32.39,-34.25,0,*7F
1508446852.64,54762,16.0,73946.8,1.09,-32.29,-34.07,0,*7D
1508446853.92,54763,16.0,73946.5,1.07,-32.45,-34.35,0,*79
1508446855.14,54764,16.0,73946.0,1.11,-32.39,-34.19,0,*7C
1508446856.37,54765,16.0,73946.5,1.09,-32.39,-34.13,0,*7E
1508446857.6,54766,16.0,73944.5,1.11,-32.23,-34.01,0,*7C
1508446858.8,54767,16.0,73946.0,1.11,-32.39,-34.25,0,*70
1508446860.05,54768,16.0,73946.5,1.09,-32.29,-34.13,0,*72
1508446861.27,54769,15.94,73946.8,1.09,-32.13,-34.07,0,*7F
1508446862.56,54770,16.0,73944.0,1.13,-32.07,-34.01,0,*7F
1508446863.8,54771,16.0,73944.3,1.11,-32.01,-33.89,0,*7D
1508446865.0,54772,16.0,73944.8,1.11,-32.01,-33.83,0,*74
1508446866.2,54773,16.0,73946.8,1.11,-32.39,-34.25,0,*75
1508446867.46,54774,15.94,73942.0,1.11,-32.07,-34.01,0,*79
1508446868.69,54775,16.0,73944.5,1.11,-32.35,-34.01,0,*79
1508446869.92,54776,16.0,73946.8,1.11,-32.07,-34.07,0,*7D
1508446871.13,54777,16.0,73946.3,1.15,-32.13,-33.95,0,*71
1508446872.35,54778,16.0,73948.0,1.13,-32.39,-34.25,0,*7C
1508446873.61,54779,16.0,73944.8,1.13,-32.19,-34.07,0,*7F
1508446874.86,54780,16.0,73946.0,1.13,-32.23,-34.19,0,*7F
1508446876.1,54781,16.0,73944.0,1.13,-32.35,-34.19,0,*79
1508446877.35,54782,16.0,73944.3,1.13,-32.39,-34.19,0,*76
1508446878.56,54783,15.94,73940.3,1.15,-32.13,-33.95,0,*7A
1508446879.78,54784,16.0,73944.5,1.13,-32.39,-34.25,0,*7F
1508446881.01,54785,16.0,73948.0,1.13,-32.23,-34.07,0,*75
1508446882.23,54786,16.0,73946.3,1.13,-32.35,-34.25,0,*71
1508446883.44,54787,15.94,73944.0,1.13,-32.35,-34.25,0,*70
1508446884.67,54788,16.0,73946.5,1.15,-32.35,-34.19,0,*76
1508446885.89,54789,16.0,73948.5,1.15,-32.39,-34.19,0,*7B
1508446887.12,54790,16.0,73944.3,1.15,-32.39,-34.31,0,*79
1508446888.37,54791,16.0,73950.0,1.13,-32.35,-34.19,0,*78
1508446889.59,54792,16.0,73948.8,1.15,-32.39,-34.31,0,*7B
1508446890.82,54793,15.94,73944.5,1.15,-32.29,-34.13,0,*7B
1508446892.06,54794,16.0,73946.5,1.15,-32.13,-34.01,0,*76
1508446893.31,54795,15.94,73944.5,1.17,-32.29,-34.13,0,*7F
1508446894.54,54796,15.94,73946.0,1.15,-32.13,-34.01,0,*74
1508446895.82,54797,16.0,73946.5,1.17,-32.19,-34.01,0,*7D
1508446897.08,54798,16.0,73946.0,1.17,-32.19,-34.13,0,*71
1508446898.32,54799,15.94,73942.5,1.17,-32.35,-34.19,0,*74
1508446899.56,54800,16.0,73944.0,1.17,-32.51,-34.35,0,*77
1508446900.81,54801,16.0,73946.0,1.17,-32.51,-34.35,0,*76
1508446902.06,54802,16.0,73946.5,1.17,-32.57,-34.35,0,*73
1508446903.3,54803,16.0,73946.0,1.17,-32.69,-34.47,0,*7A
1508446904.53,54804,16.0,73944.8,1.17,-32.69,-34.47,0,*7D
1508446905.74,54805,15.94,73946.0,1.15,-32.51,-34.47,0,*75
1508446906.96,54806,15.94,73944.5,1.15,-32.51,-34.47,0,*76
1508446908.17,54807,16.0,73944.5,1.15,-32.57,-34.47,0,*71
1508446909.45,54808,16.0,73946.8,1.17,-32.75,-34.53,0,*79
1508446910.74,54809,16.0,73946.0,1.17,-32.75,-34.65,0,*7D
1508446911.97,54810,15.94,73944.5,1.15,-32.51,-34.31,0,*70
1508446913.22,54811,15.94,73944.8,1.17,-32.51,-34.35,0,*77
1508446914.45,54812,16.0,73946.8,1.17,-32.51,-34.47,0,*71
1508446915.69,54813,16.0,73946.5,1.17,-32.51,-34.35,0,*75
1508446916.93,54814,16.0,73944.0,1.17,-32.51,-34.47,0,*77
1508446918.17,54815,15.94,73944.3,1.17,-32.51,-34.31,0,*77
1508446919.4,54816,15.94,73944.5,1.15,-32.57,-34.31,0,*70
1508446920.63,54817,16.0,73946.3,1.15,-32.51,-34.31,0,*77
1508446921.86,54818,15.94,73940.8,1.15,-32.51,-34.35,0,*7C
1508446923.12,54819,16.0,73944.3,1.17,-32.57,-34.53,0,*79
1508446924.33,54820,15.94,73942.5,1.15,-32.57,-34.47,0,*74
1508446925.6,54821,16.0,73946.8,1.15,-32.75,-34.65,0,*75
1508446926.83,54822,15.94,73946.0,1.17,-32.57,-34.47,0,*74
1508446928.08,54823,16.0,73944.5,1.17,-32.57,-34.53,0,*70
1508446929.35,54824,16.0,73946.0,1.17,-32.69,-34.53,0,*7A
1508446930.61,54825,15.94,73942.3,1.17,-32.69,-34.53,0,*7B
1508446931.85,54826,16.0,73944.5,1.17,-32.51,-34.31,0,*77
1508446933.09,54827,16.0,73944.3,1.15,-32.69,-34.53,0,*7B
1508446934.34,54828,16.0,73946.8,1.15,-32.69,-34.53,0,*74
1508446935.55,54829,15.94,73940.8,1.15,-32.57,-34.47,0,*7D
1508446936.78,54830,16.0,73942.5,1.15,-32.51,-34.35,0,*76
1508446938.06,54831,15.94,73940.3,1.17,-32.75,-34.53,0,*73
1508446939.32,54832,16.0,73944.3,1.17,-32.69,-34.53,0,*7D
1508446940.56,54833,15.94,73940.3,1.15,-32.85,-34.71,0,*7C
1508446941.79,54834,15.94,73944.0,1.17,-32.57,-34.47,0,*73
1508446943.04,54835,15.94,73940.8,1.17,-32.51,-34.35,0,*71
1508446944.26,54836,16.0,73942.3,1.15,-32.51,-34.35,0,*70
1508446945.5,54837,16.0,73944.8,1.15,-32.57,-34.53,0,*77
1508446946.71,54838,16.0,73946.0,1.15,-32.57,-34.47,0,*7D
1508446947.93,54839,15.94,73942.5,1.15,-32.57,-34.47,0,*7C
1508446949.18,54840,16.0,73944.0,1.17,-32.51,-34.35,0,*73
1508446950.4,54841,16.0,73944.5,1.15,-32.51,-34.31,0,*74
1508446951.62,54842,15.94,73940.8,1.15,-32.57,-34.47,0,*70
1508446952.83,54843,16.0,73944.5,1.15,-32.51,-34.47,0,*77
1508446954.06,54844,15.94,73942.5,1.15,-32.57,-34.35,0,*73
1508446955.27,54845,15.94,73942.8,1.15,-32.51,-34.47,0,*71
1508446956.5,54846,16.0,73940.8,1.17,-32.91,-34.77,0,*7F
1508446957.75,54847,15.94,73942.0,1.17,-32.85,-34.77,0,*7B
1508446958.96,54848,16.0,73940.5,1.15,-32.91,-34.89,0,*72
1508446960.22,54849,15.94,73940.3,1.17,-32.69,-34.53,0,*71
1508446961.45,54850,16.0,73946.8,1.15,-32.75,-34.71,0,*76
1508446962.69,54851,16.0,73944.5,1.15,-33.21,-34.95,0,*7D
1508446963.95,54852,16.0,73944.0,1.15,-33.09,-34.95,0,*74
1508446965.16,54853,15.94,73940.8,1.15,-33.03,-34.89,0,*72
1508446966.37,54854,16.0,73944.5,1.15,-33.03,-34.89,0,*75
1508446967.64,54855,15.94,73944.3,1.13,-32.97,-34.83,0,*74
1508446968.88,54856,16.0,73946.5,1.15,-32.91,-34.95,0,*70
1508446970.08,54857,15.94,73940.3,1.15,-33.03,-34.89,0,*76
1508446971.31,54858,16.0,73944.3,1.13,-32.91,-34.71,0,*72
1508446972.57,54859,15.94,73946.0,1.13,-32.75,-34.77,0,*7F
1508446973.81,54860,15.94,73942.8,1.15,-33.09,-34.89,0,*78
1508446975.04,54861,15.94,73946.0,1.13,-32.91,-34.77,0,*7E
1508446976.26,54862,15.94,73944.0,1.13,-32.91,-34.71,0,*7B
1508446977.48,54863,15.94,73944.0,1.15,-32.69,-34.47,0,*7E
1508446978.71,54864,16.0,73944.0,1.15,-32.39,-34.31,0,*7D
1508446979.96,54865,16.0,73946.0,1.15,-32.29,-34.31,0,*7D
1508446981.21,54866,16.0,73946.0,1.15,-32.29,-34.19,0,*74
1508446982.49,54867,16.0,73944.3,1.13,-32.63,-34.53,0,*73
1508446983.75,54868,15.94,73944.0,1.13,-32.75,-34.59,0,*71
1508446985.0,54869,15.94,73942.0,1.13,-32.57,-34.35,0,*7A
1508446986.23,54870,15.94,73940.8,1.13,-32.57,-34.41,0,*71
1508446987.45,54871,15.94,73940.0,1.15,-32.69,-34.47,0,*7D
1508446988.66,54872,16.0,73942.5,1.15,-32.57,-34.47,0,*73
1508446989.89,54873,15.94,73940.3,1.15,-32.57,-34.35,0,*77
1508446991.11,54874,15.94,73940.0,1.15,-32.35,-34.31,0,*70
1508446992.35,54875,16.0,73944.0,1.15,-32.57,-34.53,0,*71
1508446993.59,54876,16.0,73942.5,1.15,-32.69,-34.53,0,*7F
1508446994.82,54877,15.94,73940.0,1.15,-32.51,-34.19,0,*7B
1508446996.03,54878,15.94,73936.0,1.15,-32.57,-34.47,0,*79
1508446997.27,54879,15.94,73942.8,1.17,-32.35,-34.31,0,*7F
1508446998.51,54880,16.0,73942.3,1.17,-32.69,-34.47,0,*71
1508446999.75,54881,15.94,73940.3,1.17,-32.51,-34.19,0,*70
1508447001.01,54882,15.94,73936.5,1.17,-32.13,-34.01,0,*7C
1508447002.26,54883,16.0,73942.0,1.17,-32.39,-34.31,0,*76
1508447003.51,54884,15.94,73940.3,1.17,-32.51,-34.31,0,*7F
1508447004.76,54885,16.0,73942.3,1.17,-32.69,-34.35,0,*71
1508447006.01,54886,15.94,73942.0,1.17,-32.51,-34.35,0,*79
1508447007.29,54887,15.94,73940.0,1.17,-32.19,-34.01,0,*73
1508447008.54,54888,15.94,73942.0,1.21,-32.13,-33.89,0,*74
1508447009.82,54889,15.94,73938.3,1.21,-31.95,-33.89,0,*78
1508447011.04,54890,15.94,73940.8,1.21,-32.23,-34.07,0,*7F
1508447012.26,54891,15.94,73936.8,1.17,-32.35,-34.13,0,*79
1508447013.49,54892,15.94,73938.8,1.23,-32.01,-33.89,0,*7E
1508447014.72,54893,16.0,73944.3,1.23,-32.19,-33.83,0,*7C
1508447015.98,54894,16.0,73940.8,1.23,-32.07,-33.73,0,*7B
1508447017.24,54895,15.94,73940.3,1.23,-32.07,-33.89,0,*7F
1508447018.47,54896,16.0,73944.3,1.23,-31.91,-33.67,0,*70
1508447019.7,54897,15.94,73942.0,1.25,-32.01,-33.83,0,*77
1508447020.96,54898,15.94,73940.5,1.23,-32.07,-33.89,0,*72
1508447022.22,54899,16.0,73944.3,1.25,-32.29,-34.19,0,*77
1508447023.48,54900,15.94,73944.3,1.25,-32.29,-34.19,0,*76
1508447024.73,54901,15.94,73944.5,1.25,-32.19,-34.07,0,*7B
1508447025.96,54902,15.94,73942.0,1.23,-31.91,-33.83,0,*76
1508447027.24,54903,15.94,73938.5,1.25,-32.19,-34.01,0,*7F
1508447028.47,54904,15.94,73940.5,1.25,-32.01,-33.83,0,*7C
1508447029.7,54905,16.0,73940.3,1.27,-31.85,-33.83,0,*70
1508447030.89,54906,15.94,73942.8,1.27,-32.13,-33.95,0,*78
1508447032.09,54907,15.94,73942.8,1.27,-32.39,-34.13,0,*78
1508447033.34,54908,15.94,73946.0,1.29,-32.19,-34.13,0,*7B
1508447034.54,54909,15.94,73940.5,1.27,-32.13,-33.95,0,*77
1508447035.79,54910,15.94,73940.3,1.29,-32.23,-34.01,0,*78
1508447036.99,54911,16.0,73944.8,1.27,-32.13,-33.95,0,*7E
1508447038.25,54912,15.94,73940.5,1.29,-32.01,-33.77,0,*7C
1508447039.47,54913,16.0,73944.3,1.29,-32.01,-33.83,0,*76
1508447040.73,54914,15.94,73944.5,1.29,-31.85,-33.67,0,*74
1508447041.98,54915,15.94,73944.5,1.31,-31.95,-33.77,0,*7C
1508447043.24,54916,15.94,73942.3,1.31,-32.07,-33.89,0,*76
1508447044.5,54917,16.0,73944.3,1.31,-31.95,-33.73,0,*7A
1508447045.75,54918,15.94,73940.5,1.31,-32.07,-33.77,0,*79
1508447047.01,54919,16.0,73940.8,1.31,-31.95,-33.77,0,*70
1508447048.23,54920,15.94,73938.0,1.31,-32.19,-33.95,0,*71
1508447049.51,54921,16.0,73940.8,1.33,-32.07,-33.89,0,*70
1508447050.71,54922,15.94,73938.0,1.31,-32.13,-33.95,0,*79
1508447051.93,54923,15.94,73942.8,1.33,-32.13,-33.95,0,*7A
1508447053.21,54924,15.94,73942.0,1.33,-31.95,-33.73,0,*78
1508447054.48,54925,15.94,73942.3,1.33,-31.91,-33.73,0,*7D
1508447055.73,54926,15.94,73938.5,1.33,-32.07,-33.95,0,*7A
1508447056.93,54927,15.94,73940.3,1.35,-32.01,-33.83,0,*7C
1508447058.16,54928,15.94,73942.0,1.35,-32.13,-33.89,0,*7A
1508447059.38,54929,15.94,73940.5,1.35,-31.91,-33.67,0,*72
1508447060.61,54930,15.94,73942.5,1.35,-32.01,-33.73,0,*75
1508447061.84,54931,15.94,73944.5,1.35,-32.13,-34.01,0,*75
1508447063.09,54932,15.94,73944.3,1.35,-32.07,-34.01,0,*73
1508447064.32,54933,16.0,73944.8,1.35,-32.01,-33.89,0,*73
1508447065.57,54934,15.94,73944.8,1.37,-32.07,-33.83,0,*7A
1508447066.76,54935,15.94,73938.3,1.35,-32.23,-34.07,0,*74
1508447068.02,54936,15.94,73940.3,1.35,-32.07,-33.73,0,*75
1508447069.24,54937,16.0,73944.3,1.35,-32.13,-33.89,0,*74
1508447070.49,54938,15.94,73940.3,1.35,-32.07,-33.89,0,*7E
1508447071.74,54939,15.94,73942.3,1.37,-32.07,-33.95,0,*70
1508447073.02,54940,15.94,73942.0,1.37,-32.07,-34.01,0,*74
1508447074.27,54941,15.94,73940.5,1.37,-32.07,-33.95,0,*7F
1508447075.5,54942,15.94,73940.8,1.37,-32.01,-33.83,0,*7D
1508447076.75,54943,15.94,73938.5,1.37,-31.95,-33.83,0,*72
1508447078.03,54944,15.94,73940.0,1.37,-32.19,-34.01,0,*7F
1508447079.28,54945,15.94,73942.3,1.37,-32.07,-33.95,0,*7B
1508447080.54,54946,16.0,73946.0,1.37,-32.07,-33.83,0,*7F
1508447081.76,54947,15.94,73940.0,1.37,-32.01,-33.83,0,*78
1508447083.01,54948,15.94,73942.0,1.37,-32.07,-33.83,0,*71
1508447084.29,54949,15.94,73940.5,1.37,-32.07,-33.77,0,*7B
1508447085.52,54950,15.94,73940.5,1.39,-32.07,-33.95,0,*71
1508447086.75,54951,15.94,73942.3,1.39,-32.07,-33.95,0,*70
1508447088.01,54952,15.94,73942.5,1.39,-32.19,-34.01,0,*76
1508447089.24,54953,15.94,73940.3,1.43,-32.13,-33.95,0,*7A
1508447090.49,54954,15.94,73942.5,1.43,-32.13,-33.89,0,*70
1508447091.71,54955,16.0,73944.5,1.43,-32.13,-33.95,0,*7C
1508447092.97,54956,15.94,73940.0,1.43,-32.19,-34.13,0,*7C
1508447094.19,54957,15.94,73942.5,1.39,-32.19,-33.95,0,*79
1508447095.45,54958,15.94,73936.3,1.43,-32.01,-33.89,0,*7F
1508447096.71,54959,15.94,73940.3,1.43,-32.01,-33.89,0,*7E
1508447097.94,54960,15.94,73942.8,1.39,-32.19,-33.95,0,*7D
1508447099.19,54961,15.94,73942.0,1.43,-32.19,-33.95,0,*71
1508447100.4,54962,15.94,73938.0,1.39,-32.35,-34.19,0,*72
1508447101.63,54963,15.94,73938.8,1.43,-32.13,-34.07,0,*75
1508447102.88,54964,15.94,73940.8,1.43,-32.29,-34.07,0,*7B
1508447104.1,54965,15.94,73936.3,1.39,-32.23,-34.19,0,*72
1508447105.31,54966,16.0,73942.0,1.45,-32.35,-34.31,0,*77
1508447106.54,54967,15.94,73942.8,1.45,-32.29,-34.07,0,*7E
1508447107.77,54968,15.94,73942.3,1.45,-32.19,-34.13,0,*77
1508447109.02,54969,15.94,73938.3,1.43,-32.19,-33.95,0,*79
1508447110.3,54970,15.94,73942.5,1.43,-31.95,-33.89,0,*7B
1508447111.55,54971,16.0,73940.5,1.43,-32.29,-33.95,0,*73
1508447112.78,54972,15.94,73938.8,1.45,-32.19,-34.13,0,*7C
1508447114.0,54973,15.94,73942.3,1.45,-32.19,-34.07,0,*78
1508447115.23,54974,15.94,73938.5,1.45,-32.29,-34.13,0,*79
1508447116.46,54975,15.94,73940.0,1.45,-32.19,-34.13,0,*7B
1508447117.69,54976,16.0,73942.3,1.45,-32.19,-34.07,0,*7D
1508447118.88,54977,15.94,73938.0,1.45,-32.35,-34.25,0,*72
1508447120.13,54978,15.94,73936.5,1.47,-32.13,-34.01,0,*7D
1508447121.38,54979,15.94,73938.3,1.47,-32.29,-34.07,0,*73
1508447122.63,54980,15.94,73942.5,1.47,-32.29,-34.07,0,*75
1508447123.85,54981,15.94,73940.8,1.45,-32.29,-34.25,0,*76
1508447125.06,54982,15.94,73940.0,1.45,-32.35,-34.31,0,*7D
1508447126.26,54983,15.94,73942.0,1.45,-32.35,-34.25,0,*79
1508447127.47,54984,15.94,73940.3,1.45,-32.35,-34.31,0,*7B
1508447128.7,54985,15.94,73940.3,1.45,-32.45,-34.25,0,*78
1508447129.93,54986,15.94,73940.0,1.47,-32.57,-34.47,0,*7E
1508447131.15,54987,15.94,73940.8,1.45,-32.51,-34.35,0,*7E
1508447132.4,54988,15.94,73942.0,1.45,-32.45,-34.35,0,*74
1508447133.66,54989,15.94,73940.5,1.47,-32.13,-34.01,0,*73
1508447134.88,54990,15.94,73938.5,1.45,-32.35,-34.31,0,*7E
1508447136.1,54991,15.94,73940.0,1.45,-32.51,-34.31,0,*7D
1508447137.37,54992,15.94,73940.0,1.47,-32.45,-34.31,0,*79
1508447138.62,54993,15.94,73942.8,1.47,-32.45,-34.25,0,*7D
1508447139.87,54994,15.94,73940.5,1.45,-32.45,-34.35,0,*79
1508447141.06,54995,15.94,73940.8,1.45,-32.35,-34.25,0,*7E
1508447142.31,54996,15.94,73942.0,1.45,-32.45,-34.31,0,*7F
1508447143.56,54997,15.94,73942.8,1.47,-32.39,-34.31,0,*77
1508447144.78,54998,15.94,73942.0,1.45,-32.51,-34.35,0,*70
1508447146.01,54999,15.94,73942.0,1.45,-32.63,-34.47,0,*75
1508447147.28,55000,16.0,73946.3,1.45,-32.79,-34.65,0,*76
1508447148.51,55001,15.94,73942.0,1.45,-32.85,-34.71,0,*71
1508447149.74,55002,15.94,73938.5,1.45,-32.85,-34.71,0,*72
1508447150.99,55003,15.94,73940.5,1.45,-32.63,-34.53,0,*7B
1508447152.23,55004,15.94,73942.5,1.47,-32.57,-34.47,0,*7C
1508447153.48,55005,15.94,73936.5,1.45,-32.63,-34.53,0,*7D
1508447154.73,55006,15.94,73942.3,1.45,-32.45,-34.35,0,*7A
1508447155.96,55007,15.94,73938.8,1.45,-32.45,-34.47,0,*7E
1508447157.21,55008,16.0,73944.5,1.45,-32.63,-34.35,0,*70
1508447158.45,55009,15.94,73940.8,1.45,-32.63,-34.47,0,*74
1508447159.68,55010,15.94,73936.8,1.47,-32.57,-34.47,0,*79
1508447160.92,55011,15.94,73940.5,1.45,-32.69,-34.53,0,*72
1508447162.14,55012,15.94,73938.5,1.47,-32.57,-34.41,0,*7D
1508447163.36,55013,15.94,73942.5,1.45,-32.35,-34.35,0,*79
1508447164.61,55014,15.94,73942.0,1.45,-32.45,-34.35,0,*79
1508447165.85,55015,15.94,73942.0,1.47,-32.23,-34.19,0,*74
1508447167.1,55016,15.94,73940.8,1.45,-32.29,-34.31,0,*75
1508447168.34,55017,15.94,73936.8,1.47,-32.45,-34.41,0,*7B
1508447169.59,55018,15.94,73940.5,1.45,-32.45,-34.35,0,*75
1508447170.81,55019,15.94,73938.0,1.45,-32.51,-34.35,0,*71
1508447172.06,55020,15.94,73936.8,1.45,-32.45,-34.31,0,*7A
1508447173.28,55021,15.94,73936.3,1.47,-32.39,-34.25,0,*77
1508447174.53,55022,15.94,73936.8,1.47,-32.57,-34.31,0,*79
1508447175.77,55023,15.94,73940.0,1.45,-32.63,-34.47,0,*7C
1508447177.02,55024,15.94,73938.0,1.45,-32.45,-34.31,0,*7E
1508447178.28,55025,15.94,73938.3,1.47,-32.29,-34.19,0,*7D
1508447179.51,55026,15.94,73938.5,1.47,-32.39,-34.25,0,*70
1508447180.75,55027,15.94,73940.0,1.45,-32.45,-34.31,0,*7D
1508447181.97,55028,15.94,73936.8,1.45,-32.45,-34.25,0,*77
1508447183.23,55029,15.94,73938.0,1.49,-32.07,-34.01,0,*7A
1508447184.49,55030,15.94,73936.8,1.47,-32.13,-34.01,0,*79
1508447185.77,55031,15.94,73938.8,1.47,-32.07,-33.89,0,*7A
1508447186.99,55032,15.94,73936.8,1.47,-32.23,-34.07,0,*7E
1508447188.22,55033,15.94,73932.3,1.47,-32.23,-34.07,0,*7F
1508447189.5,55034,15.94,73936.5,1.47,-32.07,-34.01,0,*78
1508447190.76,55035,15.94,73940.5,1.49,-32.07,-33.89,0,*70
1508447192.04,55036,15.94,73942.5,1.51,-32.19,-34.01,0,*72
1508447193.24,55037,15.94,73940.5,1.49,-32.23,-34.07,0,*75
1508447194.45,55038,15.94,73940.5,1.49,-32.23,-34.19,0,*75
1508447195.68,55039,15.94,73942.5,1.49,-32.23,-34.01,0,*7D
1508447196.94,55040,15.94,73938.8,1.51,-32.01,-33.77,0,*7C
1508447198.16,55041,15.94,73936.8,1.51,-32.23,-34.13,0,*78
1508447199.38,55042,15.94,73938.3,1.51,-32.35,-34.13,0,*7C
1508447200.58,55043,15.94,73940.3,1.49,-32.13,-34.07,0,*75
1508447201.82,55044,15.94,73936.5,1.51,-32.23,-34.19,0,*77
1508447203.06,55045,15.94,73942.8,1.51,-32.35,-34.19,0,*71
1508447204.26,55046,15.94,73938.8,1.53,-32.13,-33.95,0,*77
1508447205.49,55047,15.94,73936.3,1.51,-32.01,-33.83,0,*70
1508447206.72,55048,15.94,73940.5,1.49,-32.07,-34.07,0,*7B
1508447207.97,55049,15.94,73938.5,1.51,-32.19,-34.13,0,*79
1508447209.2,55050,15.94,73940.3,1.51,-32.23,-34.13,0,*78
1508447210.42,55051,15.94,73938.3,1.51,-32.23,-34.13,0,*79
1508447211.64,55052,15.94,73938.8,1.49,-32.29,-34.07,0,*7C
1508447212.87,55053,15.94,73940.8,1.53,-32.01,-33.89,0,*7D
1508447214.1,55054,15.94,73940.0,1.53,-32.01,-33.89,0,*7A
1508447215.33,55055,15.94,73938.8,1.53,-32.13,-33.89,0,*78
1508447216.57,55056,15.94,73940.5,1.53,-32.29,-34.31,0,*76
1508447217.81,55057,15.94,73942.5,1.53,-32.45,-34.31,0,*7D
1508447219.05,55058,15.94,73938.5,1.53,-32.29,-34.19,0,*72
1508447220.28,55059,15.94,73936.0,1.53,-32.29,-34.13,0,*79
1508447221.47,55060,15.94,73938.8,1.53,-32.13,-34.07,0,*7F
1508447222.71,55061,15.94,73940.5,1.55,-32.01,-34.07,0,*7B
1508447223.91,55062,15.94,73936.3,1.53,-32.01,-33.95,0,*72
1508447225.11,55063,15.94,73936.5,1.53,-32.01,-34.07,0,*7F
1508447226.35,55064,15.94,73940.5,1.53,-32.01,-33.77,0,*78
1508447227.59,55065,15.94,73936.5,1.55,-32.35,-34.31,0,*7D
1508447228.85,55066,15.94,73940.8,1.55,-32.69,-34.53,0,*73
1508447230.08,55067,15.94,73942.5,1.55,-32.51,-34.47,0,*7C
1508447231.33,55068,15.94,73940.3,1.55,-32.29,-34.13,0,*7D
1508447232.55,55069,15.94,73942.3,1.53,-32.19,-34.13,0,*79
1508447233.81,55070,15.94,73940.5,1.55,-32.63,-34.47,0,*7B
1508447235.1,55071,15.94,73942.8,1.55,-32.79,-34.65,0,*71
1508447236.35,55072,15.94,73940.5,1.55,-32.51,-34.35,0,*7D
1508447237.58,55073,15.94,73936.0,1.53,-32.63,-34.47,0,*7E
1508447238.85,55074,15.94,73936.0,1.55,-32.45,-34.19,0,*70
1508447240.09,55075,15.94,73938.5,1.55,-32.51,-34.31,0,*7E
1508447241.38,55076,15.94,73940.8,1.55,-32.85,-34.65,0,*75
1508447242.63,55077,15.94,73940.3,1.53,-32.63,-34.35,0,*7F
1508447243.83,55078,15.94,73942.8,1.53,-32.51,-34.47,0,*74
1508447245.08,55079,15.94,73942.8,1.53,-32.45,-34.31,0,*71
1508447246.33,55080,15.94,73936.5,1.53,-32.63,-34.53,0,*77
1508447247.55,55081,15.94,73940.0,1.53,-32.51,-34.31,0,*73
1508447248.82,55082,15.94,73942.3,1.55,-32.45,-34.35,0,*77
1508447250.05,55083,15.94,73936.8,1.53,-32.63,-34.47,0,*71
1508447251.26,55084,15.94,73942.5,1.53,-32.69,-34.47,0,*7C
1508447252.49,55085,15.94,73938.0,1.53,-32.51,-34.53,0,*73
1508447253.76,55086,15.94,73938.8,1.55,-32.45,-34.31,0,*77
1508447254.99,55087,15.94,73938.5,1.53,-32.45,-34.47,0,*71
1508447256.26,55088,15.94,73936.5,1.55,-32.45,-34.35,0,*7D
1508447257.51,55089,15.94,73938.0,1.55,-32.51,-34.35,0,*79
1508447258.73,55090,15.94,73938.3,1.53,-32.51,-34.31,0,*73
1508447260.0,55091,15.94,73940.0,1.55,-32.45,-34.35,0,*75
1508447261.24,55092,15.94,73940.5,1.53,-32.69,-34.53,0,*7E
1508447262.49,55093,15.94,73938.0,1.55,-32.85,-34.71,0,*7B
1508447263.72,55094,15.94,73936.5,1.53,-32.85,-34.71,0,*7A
1508447264.96,55095,15.94,73940.0,1.53,-32.69,-34.65,0,*7C
1508447266.24,55096,15.94,73942.8,1.55,-32.85,-34.65,0,*7B
1508447267.49,55097,15.94,73940.3,1.53,-32.85,-34.83,0,*74
1508447268.7,55098,15.94,73940.8,1.53,-32.69,-34.71,0,*74
1508447269.95,55099,15.94,73938.5,1.53,-32.63,-34.35,0,*7F
1508447271.19,55100,15.94,73942.8,1.53,-32.45,-34.31,0,*7E
1508447272.46,55101,15.94,73938.0,1.55,-32.45,-34.31,0,*79
1508447273.73,55102,15.94,73938.3,1.55,-32.69,-34.53,0,*70
1508447274.93,55103,16.0,73946.0,1.53,-33.03,-34.71,0,*7A
1508447276.17,55104,15.94,73942.3,1.53,-32.97,-34.83,0,*7C
1508447277.43,55105,15.94,73942.5,1.51,-32.75,-34.59,0,*74
1508447278.65,55106,15.94,73942.8,1.51,-32.39,-34.25,0,*74
1508447279.91,55107,15.94,73938.8,1.51,-32.57,-34.53,0,*7C
1508447281.15,55108,15.94,73936.5,1.55,-32.29,-34.07,0,*7F
1508447282.37,55109,15.94,73940.0,1.53,-32.35,-34.19,0,*7A
1508447283.59,55110,15.94,73940.5,1.53,-32.51,-34.35,0,*7E
1508447284.82,55111,15.94,73942.8,1.53,-32.79,-34.71,0,*75
1508447286.06,55112,15.94,73940.5,1.53,-32.29,-34.19,0,*7D
1508447287.29,55113,15.94,73940.5,1.55,-32.01,-34.07,0,*7F
1508447288.52,55114,15.94,73936.3,1.53,-32.19,-34.13,0,*72
1508447289.74,55115,15.94,73942.5,1.55,-32.13,-33.95,0,*76
1508447290.96,55116,15.94,73936.3,1.55,-32.35,-34.13,0,*78
1508447292.19,55117,15.94,73938.0,1.53,-32.19,-34.07,0,*74
1508447293.44,55118,15.94,73936.0,1.55,-32.19,-34.13,0,*78
1508447294.71,55119,15.94,73938.5,1.55,-32.45,-34.35,0,*74
1508447295.93,55120,15.94,73940.3,1.53,-32.51,-34.35,0,*7D
1508447297.2,55121,15.94,73942.5,1.55,-32.69,-34.65,0,*74
1508447298.43,55122,15.94,73938.8,1.55,-32.51,-34.47,0,*7C
1508447299.67,55123,15.94,73940.3,1.55,-32.35,-34.31,0,*7E
1508447300.9,55124,15.94,73936.5,1.55,-32.01,-34.07,0,*7B
1508447302.12,55125,15.94,73938.8,1.55,-32.35,-34.07,0,*7D
1508447303.37,55126,15.94,73940.5,1.55,-32.29,-34.13,0,*76
1508447304.63,55127,15.94,73938.5,1.55,-32.51,-34.53,0,*7C
1508447305.88,55128,15.94,73938.5,1.55,-32.63,-34.47,0,*77